• In Deutschland
  • Länderverzeichnis
  • Für 7 Tage
  • Wassertemperatur
  • Satellitenkarten
  • Wetterkarte
  • Widgets
  • user-avatar
    Anmelden

    Stündliche Wetter Sorø

    Heute, 17 August, Freitag

    Zeit Temperatur Niederschläge Wind Luftdruck Luftfeuchtigkeit
    00:00 +18°C° 0 mm 3 m/S 756 mmHg 81%
    01:00 +18°C° 0 mm 3 m/S 756 mmHg 82%
    02:00 +18°C° 0 mm 3 m/S 756 mmHg 85%
    03:00 +17°C° 0 mm 3 m/S 756 mmHg 88%
    04:00 +17°C° 0 mm 3 m/S 756 mmHg 91%
    05:00 +18°C° 0 mm 2 m/S 757 mmHg 89%
    06:00 +18°C° 0 mm 2 m/S 757 mmHg 87%
    07:00 +19°C° 0 mm 2 m/S 757 mmHg 85%
    08:00 +20°C° 0 mm 2 m/S 757 mmHg 80%
    09:00 +21°C° 0 mm 2 m/S 757 mmHg 75%
    10:00 +23°C° 0 mm 2 m/S 758 mmHg 69%
    11:00 +21°C° 0,3 mm 3 m/S 758 mmHg 72%
    12:00 +21°C° 0,3 mm 3 m/S 758 mmHg 74%
    13:00 +21°C° 0,3 mm 3 m/S 758 mmHg 76%
    14:00 +20°C° 0,5 mm 3 m/S 758 mmHg 76%
    15:00 +20°C° 0,5 mm 3 m/S 758 mmHg 76%
    16:00 +20°C° 0,5 mm 3 m/S 758 mmHg 76%
    17:00 +19°C° 0 mm 3 m/S 758 mmHg 76%
    18:00 +19°C° 0 mm 3 m/S 758 mmHg 76%
    19:00 +19°C° 0 mm 3 m/S 758 mmHg 75%
    20:00 +18°C° 0 mm 3 m/S 758 mmHg 78%
    21:00 +17°C° 0 mm 3 m/S 759 mmHg 80%
    22:00 +16°C° 0 mm 3 m/S 759 mmHg 83%
    23:00 +15°C° 0 mm 4 m/S 759 mmHg 85%

    Morgen, 18 August, Samstag

    Zeit Temperatur Niederschläge Wind Luftdruck Luftfeuchtigkeit
    00:00 +14°C° 0 mm 4 m/S 759 mmHg 86%
    01:00 +14°C° 0 mm 4 m/S 759 mmHg 88%
    02:00 +14°C° 0 mm 4 m/S 759 mmHg 89%
    03:00 +13°C° 0 mm 4 m/S 760 mmHg 90%
    04:00 +13°C° 0 mm 4 m/S 760 mmHg 91%
    05:00 +14°C° 0 mm 4 m/S 760 mmHg 87%
    06:00 +15°C° 0 mm 4 m/S 760 mmHg 83%
    07:00 +16°C° 0 mm 5 m/S 760 mmHg 80%
    08:00 +17°C° 0 mm 5 m/S 760 mmHg 74%
    09:00 +19°C° 0 mm 5 m/S 760 mmHg 69%
    10:00 +20°C° 0 mm 6 m/S 760 mmHg 64%
    11:00 +21°C° 0 mm 6 m/S 760 mmHg 62%
    12:00 +21°C° 0 mm 6 m/S 760 mmHg 59%
    13:00 +22°C° 0 mm 7 m/S 759 mmHg 57%
    14:00 +22°C° 0 mm 7 m/S 759 mmHg 57%
    15:00 +22°C° 0 mm 7 m/S 759 mmHg 58%
    16:00 +22°C° 0 mm 7 m/S 759 mmHg 58%
    17:00 +21°C° 0 mm 7 m/S 759 mmHg 63%
    18:00 +20°C° 0 mm 7 m/S 759 mmHg 68%
    19:00 +20°C° 0 mm 7 m/S 759 mmHg 73%
    20:00 +19°C° 0 mm 6 m/S 759 mmHg 75%
    21:00 +19°C° 0 mm 6 m/S 759 mmHg 77%
    22:00 +19°C° 0 mm 6 m/S 759 mmHg 79%
    23:00 +17°C° 0 mm 6 m/S 759 mmHg 80%

    übermorgen, 19 August, Sonntag

    Zeit Temperatur Niederschläge Wind Luftdruck Luftfeuchtigkeit
    00:00 +17°C° 0 mm 6 m/S 760 mmHg 82%
    01:00 +16°C° 0 mm 6 m/S 760 mmHg 84%
    02:00 +16°C° 0 mm 6 m/S 760 mmHg 85%
    03:00 +16°C° 0 mm 6 m/S 760 mmHg 87%
    04:00 +16°C° 0 mm 6 m/S 760 mmHg 89%
    05:00 +16°C° 0 mm 6 m/S 760 mmHg 87%
    06:00 +17°C° 0 mm 6 m/S 760 mmHg 85%
    07:00 +19°C° 0 mm 6 m/S 760 mmHg 84%
    08:00 +20°C° 0 mm 6 m/S 760 mmHg 79%
    09:00 +20°C° 0 mm 6 m/S 760 mmHg 74%
    10:00 +21°C° 0 mm 6 m/S 761 mmHg 70%
    11:00 +22°C° 0,1 mm 5 m/S 761 mmHg 67%
    12:00 +22°C° 0,1 mm 5 m/S 760 mmHg 65%
    13:00 +23°C° 0,1 mm 5 m/S 760 mmHg 63%
    14:00 +23°C° 0,1 mm 5 m/S 760 mmHg 62%
    15:00 +23°C° 0,1 mm 5 m/S 760 mmHg 62%
    16:00 +23°C° 0,1 mm 5 m/S 760 mmHg 62%
    17:00 +22°C° 0,1 mm 5 m/S 760 mmHg 68%
    18:00 +21°C° 0,1 mm 4 m/S 760 mmHg 73%
    19:00 +20°C° 0,1 mm 3 m/S 760 mmHg 79%
    20:00 +19°C° 0,1 mm 3 m/S 760 mmHg 82%
    21:00 +18°C° 0,1 mm 2 m/S 760 mmHg 86%
    22:00 +19°C° 0,1 mm 1 m/S 760 mmHg 90%
    23:00 +18°C° 0,6 mm 2 m/S 760 mmHg 91%

    20 August, Montag

    Zeit Temperatur Niederschläge Wind Luftdruck Luftfeuchtigkeit
    00:00 +18°C° 0,6 mm 2 m/S 760 mmHg 92%
    01:00 +18°C° 0,6 mm 3 m/S 760 mmHg 93%
    02:00 +18°C° 1,4 mm 3 m/S 759 mmHg 93%
    03:00 +18°C° 1,4 mm 3 m/S 759 mmHg 92%
    04:00 +18°C° 1,4 mm 3 m/S 759 mmHg 92%
    05:00 +18°C° 0,8 mm 3 m/S 759 mmHg 92%
    06:00 +18°C° 0,8 mm 3 m/S 758 mmHg 92%
    07:00 +18°C° 0,8 mm 2 m/S 758 mmHg 92%
    08:00 +19°C° 0,2 mm 2 m/S 758 mmHg 90%
    09:00 +19°C° 0,2 mm 2 m/S 758 mmHg 88%
    10:00 +20°C° 0,2 mm 2 m/S 758 mmHg 86%
    11:00 +20°C° 0,1 mm 2 m/S 758 mmHg 85%
    12:00 +20°C° 0,1 mm 2 m/S 758 mmHg 85%
    13:00 +20°C° 0,1 mm 2 m/S 758 mmHg 85%
    14:00 +20°C° 0 mm 2 m/S 758 mmHg 84%
    15:00 +20°C° 0 mm 2 m/S 758 mmHg 82%
    16:00 +21°C° 0 mm 2 m/S 758 mmHg 81%
    17:00 +20°C° 0 mm 2 m/S 758 mmHg 84%
    18:00 +20°C° 0 mm 2 m/S 758 mmHg 86%
    19:00 +20°C° 0 mm 1 m/S 758 mmHg 89%
    20:00 +20°C° 0 mm 1 m/S 758 mmHg 91%
    21:00 +19°C° 0 mm 1 m/S 758 mmHg 92%
    22:00 +19°C° 0 mm 1 m/S 759 mmHg 93%
    23:00 +19°C° 0 mm 1 m/S 759 mmHg 93%

    21 August, Dienstag

    Zeit Temperatur Niederschläge Wind Luftdruck Luftfeuchtigkeit
    00:00 +18°C° 0 mm 2 m/S 759 mmHg 93%
    01:00 +18°C° 0 mm 2 m/S 759 mmHg 93%
    02:00 +18°C° 0 mm 2 m/S 759 mmHg 94%
    03:00 +18°C° 0 mm 3 m/S 759 mmHg 95%
    04:00 +17°C° 0 mm 3 m/S 759 mmHg 96%
    05:00 +17°C° 0 mm 3 m/S 759 mmHg 92%
    06:00 +17°C° 0 mm 3 m/S 759 mmHg 87%
    07:00 +18°C° 0 mm 3 m/S 759 mmHg 82%
    08:00 +19°C° 0 mm 3 m/S 759 mmHg 72%
    09:00 +20°C° 0 mm 3 m/S 760 mmHg 61%
    10:00 +21°C° 0 mm 4 m/S 760 mmHg 51%
    11:00 +22°C° 0 mm 4 m/S 760 mmHg 51%
    12:00 +22°C° 0 mm 4 m/S 759 mmHg 50%
    13:00 +23°C° 0 mm 4 m/S 759 mmHg 50%
    14:00 +23°C° 0 mm 5 m/S 759 mmHg 52%
    15:00 +25°C° 0 mm 5 m/S 759 mmHg 55%
    16:00 +25°C° 0 mm 5 m/S 759 mmHg 58%
    17:00 +23°C° 0 mm 5 m/S 759 mmHg 64%
    18:00 +22°C° 0 mm 4 m/S 759 mmHg 70%
    19:00 +21°C° 0 mm 4 m/S 759 mmHg 76%
    20:00 +20°C° 0 mm 4 m/S 759 mmHg 81%
    21:00 +20°C° 0 mm 4 m/S 759 mmHg 86%
    22:00 +19°C° 0 mm 4 m/S 759 mmHg 91%
    23:00 +19°C° 0 mm 4 m/S 759 mmHg 91%

    22 August, Mittwoch

    Zeit Temperatur Niederschläge Wind Luftdruck Luftfeuchtigkeit
    00:00 +17°C° 0 mm 5 m/S 759 mmHg 91%
    01:00 +17°C° 0 mm 5 m/S 758 mmHg 91%
    02:00 +17°C° 0 mm 5 m/S 758 mmHg 91%
    03:00 +17°C° 0 mm 5 m/S 758 mmHg 92%
    04:00 +17°C° 0 mm 5 m/S 758 mmHg 92%
    05:00 +19°C° 0 mm 5 m/S 757 mmHg 89%
    06:00 +19°C° 0 mm 5 m/S 757 mmHg 87%
    07:00 +20°C° 0 mm 5 m/S 757 mmHg 84%
    08:00 +21°C° 0 mm 6 m/S 757 mmHg 79%
    09:00 +22°C° 0 mm 6 m/S 756 mmHg 73%
    10:00 +23°C° 0 mm 7 m/S 756 mmHg 67%
    11:00 +23°C° 0,1 mm 7 m/S 756 mmHg 66%
    12:00 +23°C° 0,1 mm 8 m/S 755 mmHg 66%
    13:00 +24°C° 0,1 mm 8 m/S 755 mmHg 66%
    14:00 +24°C° 0,1 mm 8 m/S 755 mmHg 65%
    15:00 +24°C° 0,1 mm 8 m/S 755 mmHg 64%
    16:00 +24°C° 0,1 mm 8 m/S 755 mmHg 64%
    17:00 +22°C° 0 mm 7 m/S 756 mmHg 69%
    18:00 +21°C° 0 mm 6 m/S 756 mmHg 74%
    19:00 +19°C° 0 mm 6 m/S 756 mmHg 78%
    20:00 +17°C° 0 mm 6 m/S 756 mmHg 80%
    21:00 +16°C° 0 mm 5 m/S 757 mmHg 81%
    22:00 +15°C° 0 mm 5 m/S 757 mmHg 82%
    23:00 +14°C° 0 mm 5 m/S 757 mmHg 81%
    Mehr zeigen